When you browse on this site, cookies collect data to enhance your experience and personalize the content and advertising you see.
Visit our Privacy Policy to learn more. By continuing to use the site, you agree to this use of cookies and data.
  • In Portugal
  • List of Countries
  • For 7 days
  • Water Temperature
  • Satellite Maps
  • Weather Map
  • Weather Widgets
  • user-avatar
    Login

    Hourly Weather Nara

    Today, 19 February, Tuesday

    Time Temperature Precipitation Wind Pressure Humidity
    00:00 +6°C° 0 mm 1 mps 737 mmHg 51%
    01:00 +6°C° 0 mm 1 mps 737 mmHg 50%
    02:00 +7°C° 0 mm 1 mps 737 mmHg 49%
    03:00 +7°C° 0 mm 1 mps 736 mmHg 49%
    04:00 +7°C° 0.1 mm 1 mps 736 mmHg 54%
    05:00 +6°C° 0.1 mm 2 mps 736 mmHg 58%
    06:00 +6°C° 0.1 mm 2 mps 736 mmHg 63%
    07:00 +6°C° 1.2 mm 2 mps 736 mmHg 69%
    08:00 +6°C° 1.2 mm 2 mps 736 mmHg 75%
    09:00 +7°C° 0 mm 3 mps 735 mmHg 81%
    10:00 +8°C° 1.2 mm 3 mps 735 mmHg 82%
    11:00 +8°C° 1.2 mm 3 mps 734 mmHg 84%
    12:00 +9°C° 1.2 mm 3 mps 733 mmHg 86%
    13:00 +10°C° 0.9 mm 3 mps 732 mmHg 86%
    14:00 +10°C° 0.9 mm 3 mps 731 mmHg 86%
    15:00 +10°C° 0 mm 2 mps 730 mmHg 86%
    16:00 +11°C° 2.3 mm 3 mps 729 mmHg 87%
    17:00 +11°C° 2.3 mm 3 mps 729 mmHg 89%
    18:00 +11°C° 2.3 mm 3 mps 729 mmHg 90%
    19:00 +12°C° 0.6 mm 2 mps 729 mmHg 92%
    20:00 +13°C° 0.6 mm 2 mps 729 mmHg 94%
    21:00 +13°C° 0.6 mm 1 mps 729 mmHg 95%
    22:00 +13°C° 0.1 mm 1 mps 730 mmHg 96%
    23:00 +13°C° 0.1 mm 2 mps 730 mmHg 97%

    Tomorrow, 20 February, Wednesday

    Time Temperature Precipitation Wind Pressure Humidity
    00:00 +13°C° 0.1 mm 2 mps 730 mmHg 98%
    01:00 +12°C° 0 mm 2 mps 730 mmHg 96%
    02:00 +11°C° 0 mm 3 mps 731 mmHg 94%
    03:00 +10°C° 0 mm 3 mps 731 mmHg 92%
    04:00 +10°C° 0 mm 3 mps 731 mmHg 91%
    05:00 +9°C° 0 mm 3 mps 731 mmHg 91%
    06:00 +8°C° 0 mm 2 mps 731 mmHg 91%
    07:00 +9°C° 0 mm 3 mps 731 mmHg 87%
    08:00 +10°C° 0 mm 3 mps 731 mmHg 83%
    09:00 +11°C° 0 mm 4 mps 732 mmHg 78%
    10:00 +10°C° 0 mm 5 mps 732 mmHg 73%
    11:00 +12°C° 0 mm 5 mps 732 mmHg 67%
    12:00 +11°C° 0 mm 6 mps 732 mmHg 61%
    13:00 +11°C° 0 mm 6 mps 732 mmHg 60%
    14:00 +11°C° 0 mm 6 mps 731 mmHg 58%
    15:00 +11°C° 0 mm 6 mps 731 mmHg 56%
    16:00 +10°C° 0 mm 6 mps 732 mmHg 58%
    17:00 +9°C° 0 mm 6 mps 732 mmHg 61%
    18:00 +8°C° 0 mm 6 mps 732 mmHg 63%
    19:00 +7°C° 0 mm 6 mps 733 mmHg 63%
    20:00 +7°C° 0 mm 5 mps 733 mmHg 63%
    21:00 +6°C° 0 mm 5 mps 734 mmHg 64%
    22:00 +5°C° 0 mm 5 mps 734 mmHg 64%
    23:00 +5°C° 0 mm 4 mps 734 mmHg 64%

    Day after tomorrow, 21 February, Thursday

    Time Temperature Precipitation Wind Pressure Humidity
    00:00 +5°C° 0 mm 4 mps 734 mmHg 64%
    01:00 +4°C° 0 mm 3 mps 734 mmHg 65%
    02:00 +3°C° 0 mm 3 mps 734 mmHg 66%
    03:00 +3°C° 0 mm 3 mps 734 mmHg 67%
    04:00 +3°C° 0 mm 3 mps 735 mmHg 68%
    05:00 +3°C° 0 mm 3 mps 735 mmHg 69%
    06:00 +2°C° 0 mm 3 mps 735 mmHg 69%
    07:00 +3°C° 0 mm 4 mps 735 mmHg 66%
    08:00 +3°C° 0 mm 4 mps 735 mmHg 62%
    09:00 +4°C° 0 mm 4 mps 736 mmHg 58%
    10:00 +5°C° 0 mm 4 mps 736 mmHg 55%
    11:00 +6°C° 0 mm 4 mps 736 mmHg 51%
    12:00 +6°C° 0 mm 4 mps 735 mmHg 47%
    13:00 +7°C° 0 mm 4 mps 735 mmHg 47%
    14:00 +7°C° 0 mm 4 mps 735 mmHg 46%
    15:00 +7°C° 0 mm 4 mps 735 mmHg 45%
    16:00 +6°C° 0 mm 4 mps 735 mmHg 49%
    17:00 +5°C° 0 mm 4 mps 735 mmHg 53%
    18:00 +4°C° 0 mm 4 mps 735 mmHg 57%
    19:00 +3°C° 0 mm 4 mps 736 mmHg 59%
    20:00 +2°C° 0 mm 3 mps 736 mmHg 62%
    21:00 +2°C° 0 mm 3 mps 736 mmHg 64%
    22:00 +3°C° 0 mm 2 mps 736 mmHg 65%
    23:00 +2°C° 0 mm 2 mps 736 mmHg 66%

    22 February, Friday

    Time Temperature Precipitation Wind Pressure Humidity
    00:00 +2°C° 0 mm 2 mps 736 mmHg 66%
    01:00 +2°C° 0 mm 2 mps 736 mmHg 66%
    02:00 +3°C° 0 mm 1 mps 735 mmHg 65%
    03:00 +3°C° 0 mm 1 mps 735 mmHg 65%
    04:00 +3°C° 0 mm 1 mps 735 mmHg 64%
    05:00 +3°C° 0 mm 1 mps 735 mmHg 64%
    06:00 +3°C° 0 mm 1 mps 735 mmHg 63%
    07:00 +4°C° 0 mm 1 mps 735 mmHg 58%
    08:00 +6°C° 0 mm 1 mps 735 mmHg 53%
    09:00 +7°C° 0 mm 1 mps 736 mmHg 47%
    10:00 +9°C° 0 mm 1 mps 735 mmHg 43%
    11:00 +11°C° 0 mm 1 mps 735 mmHg 39%
    12:00 +12°C° 0 mm 1 mps 734 mmHg 35%
    13:00 +12°C° 0 mm 1 mps 734 mmHg 36%
    14:00 +12°C° 0 mm 1 mps 733 mmHg 37%
    15:00 +12°C° 0 mm 1 mps 732 mmHg 37%
    16:00 +11°C° 0 mm 1 mps 731 mmHg 41%
    17:00 +9°C° 0 mm 2 mps 731 mmHg 45%
    18:00 +8°C° 0 mm 2 mps 731 mmHg 49%
    19:00 +8°C° 0.7 mm 2 mps 731 mmHg 56%
    20:00 +8°C° 0.7 mm 1 mps 731 mmHg 63%
    21:00 +7°C° 0.7 mm 1 mps 731 mmHg 70%
    22:00 +7°C° 1.4 mm 1 mps 730 mmHg 73%
    23:00 +6°C° 1.4 mm 2 mps 729 mmHg 76%

    23 February, Saturday

    Time Temperature Precipitation Wind Pressure Humidity
    00:00 +5°C° 1.4 mm 2 mps 728 mmHg 79%
    01:00 +4°C° 2.1 mm 3 mps 727 mmHg 80%
    02:00 +4°C° 2.1 mm 3 mps 727 mmHg 81%
    03:00 +4°C° 2.1 mm 4 mps 726 mmHg 83%
    04:00 +4°C° 0.6 mm 4 mps 726 mmHg 82%
    05:00 +4°C° 0.6 mm 4 mps 726 mmHg 81%
    06:00 +4°C° 0.6 mm 3 mps 726 mmHg 81%
    07:00 +4°C° 0 mm 4 mps 726 mmHg 78%
    08:00 +5°C° 0 mm 4 mps 726 mmHg 75%
    09:00 +5°C° 0 mm 4 mps 727 mmHg 73%
    10:00 +5°C° 0 mm 4 mps 727 mmHg 70%
    11:00 +6°C° 0 mm 5 mps 727 mmHg 67%
    12:00 +6°C° 0 mm 5 mps 727 mmHg 65%
    13:00 +5°C° 0 mm 6 mps 727 mmHg 62%
    14:00 +5°C° 0 mm 6 mps 727 mmHg 59%
    15:00 +7°C° 0 mm 6 mps 727 mmHg 56%
    16:00 +5°C° 0 mm 6 mps 728 mmHg 58%
    17:00 +4°C° 0 mm 6 mps 728 mmHg 60%
    18:00 +3°C° 0 mm 6 mps 729 mmHg 61%
    19:00 +3°C° 0 mm 5 mps 729 mmHg 63%
    20:00 +2°C° 0 mm 5 mps 730 mmHg 65%
    21:00 +1°C° 0 mm 4 mps 731 mmHg 68%
    22:00 +1°C° 0 mm 4 mps 731 mmHg 68%
    23:00 +1°C° 0 mm 4 mps 732 mmHg 69%

    24 February, Sunday

    Time Temperature Precipitation Wind Pressure Humidity
    00:00 0°C° 0 mm 4 mps 732 mmHg 69%
    01:00 0°C° 0 mm 4 mps 732 mmHg 69%
    02:00 0°C° 0 mm 4 mps 733 mmHg 69%
    03:00 0°C° 0 mm 4 mps 733 mmHg 69%
    04:00 -1°C° 0 mm 4 mps 733 mmHg 69%
    05:00 0°C° 0 mm 3 mps 734 mmHg 70%
    06:00 0°C° 0 mm 3 mps 734 mmHg 70%
    07:00 +1°C° 0 mm 3 mps 735 mmHg 67%
    08:00 +2°C° 0 mm 3 mps 735 mmHg 63%
    09:00 +2°C° 0 mm 3 mps 736 mmHg 59%
    10:00 +5°C° 0 mm 2 mps 736 mmHg 53%
    11:00 +6°C° 0 mm 2 mps 736 mmHg 48%
    12:00 +8°C° 0 mm 2 mps 736 mmHg 42%
    13:00 +8°C° 0 mm 2 mps 735 mmHg 40%
    14:00 +9°C° 0 mm 2 mps 735 mmHg 38%
    15:00 +11°C° 0 mm 1 mps 735 mmHg 36%
    16:00 +10°C° 0 mm 1 mps 735 mmHg 40%
    17:00 +8°C° 0 mm 1 mps 735 mmHg 43%
    18:00 +7°C° 0 mm 1 mps 735 mmHg 47%
    19:00 +7°C° 0 mm 1 mps 736 mmHg 51%
    20:00 +6°C° 0 mm 1 mps 736 mmHg 54%
    21:00 +6°C° 0 mm 1 mps 736 mmHg 57%
    22:00 +5°C° 0 mm 1 mps 736 mmHg 59%
    23:00 +5°C° 0 mm 1 mps 736 mmHg 62%
    Show more